This is the latest recevied weather packets stored in our database for station/object Huerbel. If no packets are shown the sender has not sent any weather packets the latest 10 day(s).
| Time | Temp. | Humidity | Pressure | Rain* | Wind** | Luminosity | Snow |
|---|---|---|---|---|---|---|---|
| 1777530736 | 6.11° C | 46% | 1026.7 hPa | 0 mm | - | - | - |
| 1777528931 | 5° C | 47% | 1026.6 hPa | 0 mm | - | - | - |
| 1777527131 | 3.89° C | 50% | 1026.5 hPa | 0 mm | - | - | - |
| 1777525331 | 3.33° C | 53% | 1026.1 hPa | 0 mm | - | - | - |
| 1777523532 | 3.89° C | 53% | 1026 hPa | 0 mm | - | - | - |
| 1777521732 | 3.89° C | 53% | 1025.8 hPa | 0 mm | - | - | - |
| 1777519931 | 4.44° C | 54% | 1025.6 hPa | 0 mm | - | - | - |
| 1777518132 | 5° C | 53% | 1025.5 hPa | 0 mm | - | - | - |
| 1777514532 | 5.56° C | 53% | 1025.5 hPa | 0 mm | - | - | - |
| 1777512731 | 6.11° C | 53% | 1025.2 hPa | 0 mm | - | - | - |
| 1777510932 | 6.67° C | 51% | 1025.2 hPa | 0 mm | - | - | - |
| 1777509129 | 7.22° C | 49% | 1025.2 hPa | 0 mm | - | - | - |
| 1777507330 | 7.22° C | 47% | 1024.9 hPa | 0 mm | - | - | - |
| 1777505529 | 7.78° C | 45% | 1024.9 hPa | 0 mm | - | - | - |
| 1777503729 | 8.33° C | 45% | 1024.7 hPa | 0 mm | - | - | - |
| 1777501931 | 8.89° C | 44% | 1024.5 hPa | 0 mm | - | - | - |
| 1777498329 | 10° C | 42% | 1024.2 hPa | 0 mm | - | - | - |
| 1777496530 | 10.56° C | 40% | 1023.8 hPa | 0 mm | - | - | - |
| 1777494730 | 11.11° C | 40% | 1023.6 hPa | 0 mm | - | - | - |
| 1777492929 | 11.67° C | 38% | 1023.3 hPa | 0 mm | - | - | - |
| 1777491129 | 11.67° C | 37% | 1023 hPa | 0 mm | - | - | - |
| 1777489330 | 12.22° C | 38% | 1022.6 hPa | 0 mm | - | - | - |
| 1777487531 | 13.33° C | 37% | 1022.2 hPa | 0 mm | - | - | - |
| 1777485731 | 15° C | 37% | 1022 hPa | 0 mm | - | - | - |
| 1777483931 | 16.11° C | 36% | 1021.6 hPa | 0 mm | - | - | - |
* Rain since midnight (hover to see other rain measurements)
** Current wind speed in m/s (hover to see current wind gust speed)